[[{"header":{"parameterUnit":"m.s-1","parameterCategory":2,"la1":30.2991,"la2":30.254,"lo1":-89.0895,"lo2":-89.0444,"dy":0.0017,"dx":0.0017,"nx":28,"ny":28,"refTime":"2025-04-06T03:00:00:Z","depth":"0","parameterNumber":2,"parameterNumberName":"U-component_of_CURRENTS"},"data":[0,0,0,0,0,0,0,0,0,0,0,0,0,0,0,0,0,0,0,0,0,0,0,0,0,0,0,0,0,0,0,0,0,0,0,0,0,0,0,0,0,0,0,0,0,0,0,0,0,0,0,0,0,0,0,0,0,0,0.2843,0.2844,0,0.2875,0.2875,0.2876,0.2866,0.2865,0.2865,0.2865,0.2856,0.2857,0.2857,0,0,0,0,0,0,0,0,0,0,0,0,0,0.2776,0.2777,0.2843,0.2844,0.2844,0.2875,0.2875,0.2876,0.2866,0.2865,0.2865,0.2864,0.2856,0.2856,0.2857,0,0,0,0,0,0,0,0,0,0,0,0,0,0.2804,0.2777,0.2843,0.2845,0.2846,0.2875,0.2875,0.2876,0.2866,0.2865,0.2865,0.2864,0.2856,0.2856,0.2857,0.2871,0,0,0.2857,0.2858,0,0,0,0,0,0,0,0,0.2802,0.2806,0.2844,0.2845,0.2846,0.2868,0.2849,0.2873,0.2866,0.2855,0.2865,0.2864,0.2859,0.2859,0.2863,0.287,0.287,0.2858,0.2858,0.2858,0.2858,0,0,0,0,0,0,0,0.28,0.2804,0.2853,0.2845,0.2846,0.2846,0.2849,0.2853,0.2857,0.2856,0.2856,0.2865,0.2859,0.2863,0.2863,0.287,0.2858,0.2858,0.2858,0.2858,0.2921,0.2922,0,0,0,0,0,0,0.2803,0.2803,0.2852,0.2854,0.2825,0.2848,0.2851,0.286,0.2858,0.2859,0.2865,0.2864,0.2863,0.2862,0.2862,0.2898,0.2858,0.2858,0.2858,0.2919,0.2921,0.2923,0,0,0,0,0,0,0.2801,0.2807,0.2851,0.2831,0.2837,0.285,0.286,0.2861,0.2869,0.2866,0.2865,0.2873,0.2862,0.2862,0.2878,0.2896,0.2858,0.2858,0.2917,0.292,0.2922,0.2956,0,0,0,0,0,0,0.2799,0.2806,0.2813,0.2832,0.2839,0.2874,0.286,0.2862,0.2876,0.2875,0.2872,0.2871,0.2862,0.2878,0.2878,0.2896,0.2859,0.2915,0.2918,0.2921,0.2953,0.296,0.2965,0,0,0,0,0,0.2797,0.2808,0.2813,0.2819,0.2847,0.2876,0.2879,0.2884,0.2877,0.2887,0.2888,0.2871,0.2896,0.2879,0.2879,0.2898,0.2914,0.2918,0.2921,0.2951,0.2958,0.2965,0,0,0,0,0,0,0.2779,0.2809,0.2814,0.2834,0.2857,0.2875,0.2887,0.289,0.2899,0.2898,0.2887,0.2887,0.2912,0.2904,0.2885,0.2927,0.2904,0.2907,0.2927,0.2934,0.2939,0.294,0.2859,0,0,0,0,0,0.2781,0.2799,0.2827,0.2843,0.2857,0.2873,0.2885,0.2892,0.2904,0.2907,0.2906,0.2911,0.2927,0.2928,0.294,0.2956,0.2964,0.2971,0.2977,0.2982,0.2985,0.3018,0.3027,0.2934,0.2934,0.2934,0,0,0.2779,0.2799,0.2808,0.2841,0.2858,0.2882,0.2878,0.2904,0.2921,0.2906,0.2925,0.2934,0.2939,0.2964,0.2973,0.2956,0.3016,0.2986,0.299,0.299,0.3023,0.3032,0.304,0.2936,0.2936,0.2935,0,0,0.2785,0.2804,0.2821,0.2844,0.2878,0.2893,0.2903,0.2929,0.2938,0.2961,0.2962,0.2983,0.2994,0.3007,0.3013,0.3059,0.3052,0.3063,0.3083,0.3116,0.3124,0.313,0.3163,0.3172,0.3058,0.3058,0.3058,0,0.278,0.2805,0.283,0.2855,0.2874,0.2899,0.2921,0.2941,0.2967,0.2979,0.2971,0.3014,0.3016,0.3053,0.307,0.3071,0.3088,0.3052,0.3123,0.3129,0.3136,0.3167,0.3177,0.3061,0.306,0.306,0.306,0,0.2801,0.2821,0.2836,0.2874,0.2899,0.2925,0.2959,0.2981,0.2994,0.3011,0.3052,0.3066,0.3087,0.3098,0.3095,0.3146,0.3144,0.3131,0.3101,0.3147,0.3177,0.3187,0.3063,0.3063,0.3062,0.3062,0,0,0.2782,0.2838,0.2839,0.2855,0.291,0.2927,0.2971,0.301,0.3036,0.3063,0.3098,0.313,0.3139,0.3149,0.3157,0.3183,0.3245,0.3175,0.3176,0.32,0.3323,0.3334,0.3345,0.3243,0.3245,0.3246,0.3329,0,0.2787,0.2821,0.2854,0.2885,0.2906,0.2948,0.298,0.3021,0.3061,0.3103,0.3133,0.3172,0.3159,0.3178,0.3204,0.3244,0.3271,0.3224,0.3281,0.3283,0.3281,0.3357,0.3333,0.3406,0.3339,0.334,0.3341,0,0.279,0.2812,0.2839,0.2883,0.2896,0.2917,0.2975,0.3011,0.3085,0.3124,0.3174,0.3204,0.3262,0.324,0.3318,0.329,0.3308,0.333,0.3333,0.3336,0.3312,0.3349,0.3426,0.3404,0.3356,0.3355,0.3354,0,0.2747,0.2797,0.2812,0.2829,0.2887,0.2902,0.2933,0.3005,0.3049,0.3144,0.3188,0.3257,0.3298,0.3339,0.3384,0.3357,0.3471,0.3435,0.3461,0.3461,0.3449,0.3446,0.3504,0.3485,0.3485,0.3484,0.3484,0,0.2732,0.2741,0.2787,0.2792,0.2809,0.2863,0.2899,0.2955,0.3048,0.3102,0.3185,0.325,0.3325,0.3393,0.3418,0.3485,0.3497,0.3488,0.3493,0.3462,0.3459,0.3443,0.3411,0.3488,0.3487,0.3486,0.3486,0,0.268,0.2713,0.2728,0.2774,0.2787,0.2794,0.2869,0.2901,0.3002,0.3085,0.3119,0.3262,0.337,0.3441,0.3532,0.3532,0.3524,0.3602,0.3566,0.3566,0.3555,0.3525,0.3364,0.3276,0.365,0.3651,0.3652,0,0.2656,0.2658,0.2695,0.2696,0.2712,0.2738,0.2757,0.2863,0.2915,0.3085,0.312,0.3271,0.3369,0.353,0.3598,0.3676,0.3557,0.3668,0.3608,0.3577,0.3547,0.3324,0.3244,0.3609,0.3609,0.361,0.361,0,0.2607,0.2617,0.2626,0.2629,0.2638,0.2656,0.2699,0.2742,0.287,0.2954,0.3083,0.3185,0.3395,0.3511,0.3645,0.3676,0.3541,0.3675,0.3656,0.3541,0.3288,0.32,0.3528,0.3613,0.3612,0.3612,0.3612,0.3612,0.2561,0.2549,0.2556,0.255,0.2559,0.2559,0.2546,0.2627,0.2697,0.2814,0.2978,0.3117,0.3411,0.3622,0.3624,0.369,0.3548,0.3649,0.3624,0.3404,0.3286,0.3625,0.3702,0.3702,0.3703,0.3703,0.3703,0,0.2493,0.2483,0.2477,0.2454,0.2423,0.2462,0.249,0.2475,0.2514,0.2707,0.2819,0.3137,0.3347,0.3548,0.3747,0.3676,0.3453,0.3608,0.3319,0.325,0.3607,0.3579,0.3618,0.3618,0.3618,0.3618,0.3618,0.3618,0.2453,0.2415,0.2406,0.2321,0.2304,0.2232,0.2224,0.224,0.2349,0.2507,0.2691,0.2891,0.3331,0.3694,0.3762,0.367,0.3398,0.3266,0.3185,0.3524,0.3525,0.3526,0.3494,0.3515,0.3515,0.2717,0.2712,0.2708]},{"header":{"parameterUnit":"m.s-1","parameterCategory":2,"la1":30.2991,"la2":30.254,"lo1":-89.0895,"lo2":-89.0444,"dy":0.0017,"dx":0.0017,"nx":28,"ny":28,"refTime":"2025-04-06T03:00:00:Z","depth":"0","parameterNumber":3,"parameterNumberName":"V-component_of_CURRENTS"},"data":[0,0,0,0,0,0,0,0,0,0,0,0,0,0,0,0,0,0,0,0,0,0,0,0,0,0,0,0,0,0,0,0,0,0,0,0,0,0,0,0,0,0,0,0,0,0,0,0,0,0,0,0,0,0,0,0,0,0,0.0197,0.0196,0,0.0116,0.0114,0.0113,0.0063,0.0063,0.0063,0.0063,-0.0043,-0.0046,-0.0048,0,0,0,0,0,0,0,0,0,0,0,0,0,0.0242,0.0241,0.0197,0.0196,0.0195,0.0116,0.0114,0.0113,0.0063,0.0063,0.0063,0.0063,-0.0042,-0.0045,-0.0049,0,0,0,0,0,0,0,0,0,0,0,0,0,0.0196,0.0241,0.0197,0.0162,0.0158,0.0116,0.0114,0.0113,0.0063,0.0063,0.0063,0.0063,-0.0041,-0.0045,-0.0049,-0.0073,0,0,-0.0062,-0.0064,0,0,0,0,0,0,0,0,0.0198,0.0194,0.0168,0.0165,0.016,0.0101,0.0091,0.005,0.0063,0.0097,0.0063,0.0063,0.0004,-0.0004,-0.0021,-0.0078,-0.0082,-0.0062,-0.0065,-0.0066,-0.0068,0,0,0,0,0,0,0,0.0202,0.0197,0.0162,0.0167,0.0162,0.0128,0.0122,0.0083,0.005,0.0094,0.0091,0.0085,0.0002,-0.0017,-0.0024,-0.0084,-0.0062,-0.0066,-0.0068,-0.007,-0.0154,-0.0154,0,0,0,0,0,0,0.022,0.02,0.0165,0.016,0.0182,0.0128,0.0121,0.0119,0.0051,0.0042,0.0086,0.0083,-0.001,-0.0019,-0.0028,-0.0036,-0.0066,-0.007,-0.0073,-0.0154,-0.0154,-0.0153,0,0,0,0,0,0,0.0221,0.0217,0.0168,0.018,0.0171,0.0128,0.0125,0.0117,0.0102,0.0045,0.0035,0.008,-0.001,-0.0022,-0.0054,-0.0042,-0.0072,-0.0076,-0.0154,-0.0154,-0.0154,-0.0068,0,0,0,0,0,0,0.0223,0.0219,0.0222,0.0181,0.0171,0.0153,0.0125,0.0116,0.01,0.0096,0.0037,0.0027,-0.0011,-0.0047,-0.0058,-0.0048,-0.0079,-0.0155,-0.0154,-0.0154,-0.0071,-0.0065,-0.0059,0,0,0,0,0,0.0225,0.0235,0.0223,0.0219,0.0179,0.0154,0.0146,0.0112,0.01,0.0098,0.006,0.0029,-0.0052,-0.005,-0.0063,-0.0054,-0.0155,-0.0154,-0.0154,-0.0074,-0.0066,-0.006,0,0,0,0,0,0,0.0255,0.023,0.0216,0.0218,0.0192,0.0147,0.0143,0.012,0.0086,0.0085,0.003,0.0017,-0.0007,-0.0043,-0.004,-0.0077,-0.0108,-0.011,-0.0043,-0.0036,-0.003,-0.001,-0.0083,0,0,0,0,0,0.0265,0.0267,0.0234,0.0235,0.0227,0.0186,0.0172,0.0151,0.0117,0.0103,0.0062,0.002,-0.0016,-0.0034,-0.0073,-0.0094,-0.0126,-0.0097,-0.0091,-0.0085,-0.0078,-0.0115,-0.0111,-0.0152,-0.0152,-0.0152,0,0,0.0277,0.0264,0.0264,0.0242,0.022,0.0218,0.0177,0.0165,0.0163,0.0096,0.0082,0.0038,-0.0017,-0.0038,-0.0052,-0.0066,-0.009,-0.0084,-0.0079,-0.0075,-0.0114,-0.011,-0.0106,-0.0151,-0.0151,-0.0151,0,0,0.0308,0.0292,0.0307,0.0292,0.0269,0.0245,0.0247,0.0209,0.0191,0.0168,0.0124,0.0091,0.0033,0.0001,-0.0024,-0.001,-0.0058,-0.0025,0.0023,-0.0013,-0.0009,-0.0007,-0.0034,-0.0035,-0.002,-0.002,-0.002,0,0.0323,0.0337,0.0306,0.0316,0.0313,0.0265,0.0281,0.0254,0.021,0.0202,0.0177,0.0101,0.0054,0.003,0.0034,0.0005,-0.0022,0.0004,-0.0003,-0.0002,-0.0,-0.0029,-0.0031,-0.0016,-0.0016,-0.0017,-0.0017,0,0.0366,0.0375,0.0383,0.0383,0.0374,0.0379,0.0345,0.0332,0.0304,0.0277,0.0246,0.0179,0.0137,0.0115,0.0076,0.0063,0.004,0.001,-0.0016,0.0009,-0.0023,-0.0027,-0.001,-0.0011,-0.0012,-0.0013,0,0,0.0406,0.0413,0.0416,0.0432,0.0413,0.0413,0.0411,0.0398,0.0405,0.0349,0.035,0.028,0.0243,0.0211,0.0157,0.0122,0.0105,0.0076,0.0072,0.0059,0.0033,0.0023,0.0018,0.0074,0.0073,0.0073,0.001,0,0.045,0.0491,0.0479,0.0516,0.0536,0.05,0.0502,0.0482,0.0457,0.0444,0.0371,0.0348,0.028,0.0263,0.0218,0.0133,0.0098,0.0125,0.0001,-0.0003,-0.0006,0.0015,0.0059,0.0007,0.0007,0.0006,0.0006,0,0.0498,0.0521,0.0567,0.059,0.0595,0.0604,0.0611,0.0608,0.0572,0.0556,0.0518,0.0458,0.0399,0.0336,0.0211,0.0231,0.0143,0.0072,0.0068,0.0027,-0.0018,-0.0022,0.0,-0.0138,-0.0,0.0,0.0001,0,0.0549,0.0585,0.0628,0.0634,0.0645,0.0656,0.0658,0.064,0.0659,0.063,0.0641,0.0552,0.0516,0.0393,0.0243,0.0228,0.0104,0.0062,-0.0029,-0.0031,-0.0033,-0.0035,-0.015,-0.0023,-0.0023,-0.0022,-0.0022,0,0.0604,0.0638,0.0654,0.0676,0.0726,0.0711,0.0758,0.0748,0.0754,0.0794,0.0703,0.0714,0.0528,0.043,0.0281,0.0125,0.0133,-0.0013,-0.0045,-0.0002,0.0,-0.0154,-0.0244,-0.0025,-0.0024,-0.0024,-0.0023,0,0.0651,0.0661,0.0713,0.0738,0.0751,0.0784,0.0831,0.0867,0.0863,0.0914,0.0911,0.0836,0.0719,0.0529,0.0334,0.019,-0.0049,-0.0029,0.0039,0.0015,-0.02,-0.0286,-0.0443,-0.0525,-0.0137,-0.0137,-0.0138,0,0.0681,0.0711,0.0761,0.0797,0.081,0.0861,0.0898,0.0917,0.0973,0.0998,0.1032,0.0939,0.0905,0.0616,0.0349,0.0099,-0.0059,-0.0043,-0.0071,-0.0198,-0.0319,-0.0377,-0.0439,-0.0042,-0.0041,-0.0041,-0.0041,0,0.0736,0.0747,0.0787,0.0859,0.0909,0.098,0.1041,0.1106,0.114,0.1195,0.1244,0.122,0.0963,0.0748,0.0398,0.0202,-0.0133,-0.0045,-0.0197,-0.0267,-0.0318,-0.0415,-0.0015,-0.0038,-0.0038,-0.0039,-0.0039,-0.0039,0.0772,0.0808,0.0855,0.0926,0.0991,0.1083,0.1152,0.124,0.1342,0.1447,0.1421,0.147,0.1154,0.0694,0.0376,-0.0107,-0.0133,-0.0233,-0.033,-0.0379,-0.0451,-0.004,-0.0091,-0.0091,-0.0092,-0.0092,-0.0093,0,0.0816,0.0853,0.0921,0.1002,0.1082,0.1109,0.1237,0.1322,0.1456,0.1608,0.1676,0.1664,0.1221,0.076,0.0117,-0.0275,-0.0451,-0.0502,-0.0576,-0.0631,-0.0273,-0.026,-0.0325,-0.0325,-0.0325,-0.0325,-0.0325,-0.0325,0.0838,0.0903,0.0932,0.1058,0.1122,0.1235,0.1313,0.1449,0.1597,0.1832,0.1986,0.2082,0.1863,0.055,-0.0301,-0.053,-0.0809,-0.0882,-0.1046,-0.0795,-0.0777,-0.076,-0.0769,-0.094,-0.0941,-0.1335,-0.1339,-0.1342]}],[{"header":{"parameterUnit":"m.s-1","parameterCategory":2,"la1":30.2991,"la2":30.254,"lo1":-89.0895,"lo2":-89.0444,"dy":0.0017,"dx":0.0017,"nx":28,"ny":28,"refTime":"2025-04-06T03:00:00:Z","depth":"2","parameterNumber":2,"parameterNumberName":"U-component_of_CURRENTS"},"data":[0,0,0,0,0,0,0,0,0,0,0,0,0,0,0,0,0,0,0,0,0,0,0,0,0,0,0,0,0,0,0,0,0,0,0,0,0,0,0,0,0,0,0,0,0,0,0,0,0,0,0,0,0,0,0,0,0,0,0.2788,0.2789,0,0.282,0.282,0.2821,0.2815,0.2814,0.2814,0.2814,0.281,0.281,0.281,0,0,0,0,0,0,0,0,0,0,0,0,0,0.2723,0.2724,0.2788,0.2789,0.2789,0.282,0.282,0.2821,0.2815,0.2814,0.2814,0.2813,0.281,0.281,0.281,0,0,0,0,0,0,0,0,0,0,0,0,0,0.2751,0.2725,0.2788,0.2792,0.2793,0.282,0.282,0.2821,0.2815,0.2814,0.2814,0.2813,0.281,0.281,0.281,0.2822,0,0,0.2811,0.2812,0,0,0,0,0,0,0,0,0.2749,0.2753,0.2791,0.2792,0.2793,0.2815,0.2797,0.282,0.2815,0.2803,0.2814,0.2813,0.2811,0.2811,0.2815,0.2822,0.2822,0.2811,0.2812,0.2812,0.2812,0,0,0,0,0,0,0,0.2747,0.2751,0.2798,0.2792,0.2793,0.2793,0.2796,0.2801,0.2807,0.2804,0.2805,0.2813,0.281,0.2814,0.2814,0.2822,0.2811,0.2812,0.2812,0.2812,0.2875,0.2877,0,0,0,0,0,0,0.2749,0.275,0.2797,0.2799,0.2772,0.2795,0.2798,0.2806,0.2807,0.2808,0.2813,0.2813,0.2814,0.2814,0.2814,0.2852,0.2812,0.2812,0.2812,0.2874,0.2876,0.2877,0,0,0,0,0,0,0.2748,0.2753,0.2796,0.2777,0.2783,0.2797,0.2806,0.2807,0.2817,0.2815,0.2814,0.2823,0.2814,0.2814,0.2831,0.2851,0.2812,0.2812,0.2872,0.2874,0.2877,0.2912,0,0,0,0,0,0,0.2746,0.2752,0.276,0.2777,0.2784,0.2819,0.2807,0.2808,0.2824,0.2823,0.2823,0.2822,0.2813,0.2831,0.2831,0.285,0.2813,0.287,0.2873,0.2876,0.2909,0.2915,0.292,0,0,0,0,0,0.2743,0.2755,0.276,0.2766,0.2793,0.282,0.2824,0.283,0.2825,0.2835,0.2838,0.2822,0.2849,0.2832,0.2833,0.2852,0.2869,0.2872,0.2876,0.2906,0.2914,0.292,0,0,0,0,0,0,0.2728,0.2756,0.2762,0.278,0.2803,0.282,0.2833,0.2837,0.2847,0.2848,0.2838,0.2838,0.2864,0.2857,0.2838,0.2881,0.2858,0.2862,0.2881,0.2888,0.2894,0.2894,0.2813,0,0,0,0,0,0.273,0.2747,0.2773,0.279,0.2803,0.282,0.2831,0.2839,0.2852,0.2856,0.2857,0.2863,0.2879,0.2881,0.2893,0.2911,0.2918,0.2926,0.2932,0.2937,0.2939,0.2972,0.2981,0.2888,0.2888,0.2888,0,0,0.2728,0.2747,0.2756,0.2788,0.2805,0.2828,0.2825,0.2851,0.2868,0.2855,0.2875,0.2886,0.2891,0.2916,0.2927,0.2909,0.297,0.2941,0.2945,0.2945,0.2977,0.2986,0.2994,0.2891,0.289,0.289,0,0,0.2734,0.2752,0.2769,0.2792,0.2826,0.284,0.2851,0.2876,0.2886,0.2911,0.2913,0.2935,0.2947,0.296,0.2966,0.3012,0.3005,0.3018,0.3038,0.307,0.3078,0.3085,0.3115,0.3124,0.3013,0.3013,0.3013,0,0.273,0.2754,0.2779,0.2803,0.2821,0.2847,0.2869,0.2889,0.2915,0.2928,0.2922,0.2966,0.2969,0.3006,0.3023,0.3024,0.3041,0.3007,0.3077,0.3084,0.309,0.3119,0.3129,0.3015,0.3015,0.3015,0.3015,0,0.275,0.277,0.2785,0.2822,0.2847,0.2873,0.2906,0.293,0.2944,0.2961,0.3004,0.3018,0.304,0.3052,0.3048,0.3099,0.3098,0.3085,0.3055,0.3101,0.313,0.3139,0.3018,0.3018,0.3017,0.3016,0,0,0.2732,0.2786,0.2789,0.2804,0.2859,0.2876,0.2919,0.2958,0.2985,0.3013,0.3049,0.3082,0.3092,0.3102,0.311,0.3137,0.3198,0.3129,0.313,0.3153,0.3274,0.3279,0.329,0.3197,0.3198,0.32,0.328,0,0.2737,0.2771,0.2803,0.2835,0.2855,0.2897,0.2929,0.297,0.3011,0.3054,0.3084,0.3124,0.3111,0.3132,0.3158,0.3196,0.3223,0.3178,0.3232,0.3234,0.3227,0.3301,0.3042,0.3092,0.3289,0.329,0.3291,0,0.274,0.2762,0.279,0.2834,0.2846,0.2868,0.2927,0.2963,0.3036,0.3075,0.3126,0.3156,0.3214,0.3193,0.327,0.3243,0.3261,0.3281,0.3285,0.3281,0.3257,0.3077,0.3101,0.3307,0.3305,0.3304,0.3303,0,0.2699,0.2749,0.2764,0.2781,0.2839,0.2855,0.2886,0.2959,0.3002,0.3097,0.3141,0.3209,0.3251,0.329,0.3334,0.3309,0.3418,0.3384,0.3404,0.3404,0.319,0.3169,0.3433,0.3433,0.3432,0.3432,0.3432,0,0.2684,0.2695,0.2741,0.2747,0.2765,0.2819,0.2856,0.2912,0.3004,0.3058,0.314,0.3203,0.3277,0.3344,0.3367,0.343,0.3444,0.3429,0.3434,0.3198,0.3178,0.3362,0.3352,0.3435,0.3434,0.3434,0.3433,0,0.2634,0.2667,0.2683,0.2731,0.2745,0.2753,0.2829,0.2861,0.2962,0.3043,0.3078,0.3217,0.332,0.3389,0.3477,0.3475,0.3531,0.3539,0.3268,0.324,0.3483,0.3475,0.3576,0.3577,0.3578,0.3579,0.358,0,0.261,0.2614,0.2652,0.2655,0.2672,0.2701,0.272,0.2825,0.2877,0.3044,0.3077,0.3224,0.3313,0.3465,0.3491,0.3555,0.3581,0.3349,0.3258,0.3509,0.3503,0.3493,0.3484,0.2982,0.2977,0.2974,0.2971,0,0.2563,0.2575,0.2585,0.259,0.2601,0.262,0.2665,0.2706,0.2833,0.2912,0.3035,0.3129,0.3295,0.3274,0.3384,0.3374,0.3324,0.3284,0.3607,0.3007,0.296,0.2951,0.2958,0.2939,0.2942,0.2945,0.2947,0.2948,0.2519,0.2508,0.2517,0.2514,0.2525,0.2525,0.2513,0.2582,0.2646,0.273,0.2897,0.2947,0.3051,0.3102,0.3049,0.3013,0.3241,0.3099,0.3103,0.3113,0.3052,0.3012,0.2988,0.2991,0.2994,0.2997,0.2999,0,0.2447,0.2445,0.244,0.2421,0.2385,0.2431,0.2458,0.2423,0.2443,0.2565,0.2643,0.252,0.2565,0.2651,0.2572,0.263,0.2524,0.2517,0.2344,0.2382,0.2415,0.2308,0.2052,0.2048,0.2045,0.2042,0,0,0.2408,0.2369,0.2361,0.2278,0.2268,0.2188,0.218,0.2159,0.2205,0.2194,0.2211,0.2422,0.2591,0.2264,0.2271,0.2143,0.2218,0.2057,0.2832,0.2666,0.2692,0.2791,0.2679,0,0,0,0,0]},{"header":{"parameterUnit":"m.s-1","parameterCategory":2,"la1":30.2991,"la2":30.254,"lo1":-89.0895,"lo2":-89.0444,"dy":0.0017,"dx":0.0017,"nx":28,"ny":28,"refTime":"2025-04-06T03:00:00:Z","depth":"2","parameterNumber":3,"parameterNumberName":"V-component_of_CURRENTS"},"data":[0,0,0,0,0,0,0,0,0,0,0,0,0,0,0,0,0,0,0,0,0,0,0,0,0,0,0,0,0,0,0,0,0,0,0,0,0,0,0,0,0,0,0,0,0,0,0,0,0,0,0,0,0,0,0,0,0,0,0.0128,0.0128,0,0.0049,0.0048,0.0046,-0.0003,-0.0003,-0.0003,-0.0003,-0.0107,-0.0109,-0.0112,0,0,0,0,0,0,0,0,0,0,0,0,0,0.0172,0.0172,0.0128,0.0127,0.0127,0.0049,0.0048,0.0046,-0.0003,-0.0003,-0.0003,-0.0003,-0.0106,-0.0109,-0.0112,0,0,0,0,0,0,0,0,0,0,0,0,0,0.0127,0.0171,0.0128,0.0094,0.0091,0.0049,0.0047,0.0046,-0.0003,-0.0003,-0.0003,-0.0003,-0.0105,-0.0109,-0.0113,-0.0135,0,0,-0.0125,-0.0127,0,0,0,0,0,0,0,0,0.013,0.0125,0.01,0.0097,0.0092,0.0035,0.0025,-0.0015,-0.0003,0.0031,-0.0003,-0.0003,-0.006,-0.0068,-0.0085,-0.014,-0.0145,-0.0125,-0.0128,-0.0129,-0.0131,0,0,0,0,0,0,0,0.0133,0.0128,0.0095,0.0099,0.0095,0.0061,0.0054,0.0017,-0.0015,0.0028,0.0024,0.0019,-0.0063,-0.0081,-0.0088,-0.0146,-0.0125,-0.0129,-0.0131,-0.0133,-0.0214,-0.0214,0,0,0,0,0,0,0.015,0.0131,0.0097,0.0092,0.0113,0.006,0.0053,0.0052,-0.0014,-0.0024,0.0019,0.0017,-0.0074,-0.0083,-0.0092,-0.01,-0.0129,-0.0133,-0.0136,-0.0214,-0.0214,-0.0214,0,0,0,0,0,0,0.0152,0.0148,0.01,0.0111,0.0103,0.006,0.0058,0.005,0.0036,-0.002,-0.0031,0.0015,-0.0075,-0.0086,-0.0117,-0.0105,-0.0135,-0.0139,-0.0215,-0.0214,-0.0214,-0.013,0,0,0,0,0,0,0.0153,0.0149,0.0154,0.0113,0.0103,0.0086,0.0058,0.0049,0.0034,0.003,-0.0028,-0.0038,-0.0076,-0.011,-0.0121,-0.0111,-0.0142,-0.0215,-0.0215,-0.0214,-0.0133,-0.0127,-0.0122,0,0,0,0,0,0.0155,0.0166,0.0154,0.015,0.0111,0.0087,0.0079,0.0046,0.0034,0.0032,-0.0005,-0.0036,-0.0115,-0.0113,-0.0125,-0.0117,-0.0215,-0.0215,-0.0214,-0.0136,-0.0128,-0.0122,0,0,0,0,0,0,0.0186,0.0161,0.0147,0.015,0.0125,0.008,0.0076,0.0053,0.0021,0.002,-0.0034,-0.0047,-0.007,-0.0106,-0.0103,-0.014,-0.0169,-0.0171,-0.0106,-0.0099,-0.0093,-0.0074,-0.0145,0,0,0,0,0,0.0196,0.0199,0.0166,0.0168,0.016,0.0119,0.0106,0.0085,0.0052,0.0038,-0.0002,-0.0043,-0.0079,-0.0097,-0.0135,-0.0155,-0.0187,-0.0158,-0.0152,-0.0147,-0.014,-0.0178,-0.0175,-0.0212,-0.0212,-0.0212,0,0,0.0208,0.0196,0.0196,0.0174,0.0153,0.0151,0.0111,0.01,0.0097,0.0032,0.0017,-0.0025,-0.008,-0.0101,-0.0115,-0.0128,-0.0152,-0.0146,-0.0141,-0.0137,-0.0177,-0.0173,-0.017,-0.0212,-0.0212,-0.0212,0,0,0.0239,0.0224,0.0239,0.0224,0.0202,0.0178,0.018,0.0143,0.0125,0.0103,0.0059,0.0027,-0.0029,-0.0062,-0.0088,-0.0073,-0.0121,-0.0087,-0.0041,-0.0077,-0.0074,-0.0072,-0.01,-0.01,-0.0083,-0.0082,-0.0082,0,0.0255,0.0268,0.0238,0.0247,0.0245,0.0198,0.0213,0.0187,0.0144,0.0135,0.0112,0.0037,-0.0009,-0.0034,-0.0031,-0.0059,-0.0086,-0.006,-0.0068,-0.0067,-0.0066,-0.0095,-0.0097,-0.0078,-0.0079,-0.0079,-0.008,0,0.0296,0.0305,0.0313,0.0313,0.0304,0.0309,0.0276,0.0263,0.0236,0.0208,0.0178,0.0112,0.007,0.0049,0.0011,-0.0003,-0.0026,-0.0055,-0.0081,-0.0057,-0.0089,-0.0093,-0.0073,-0.0074,-0.0075,-0.0076,0,0,0.0336,0.0343,0.0345,0.0361,0.0342,0.0342,0.0339,0.0325,0.0332,0.0278,0.0277,0.0208,0.0173,0.0141,0.0089,0.0053,0.0035,0.0008,0.0004,-0.0009,-0.0039,-0.0047,-0.0053,0.0004,0.0004,0.0003,-0.006,0,0.0378,0.0418,0.0406,0.0442,0.0461,0.0426,0.0426,0.0406,0.0382,0.0367,0.0296,0.0273,0.0208,0.0192,0.0146,0.0062,0.0028,0.0055,-0.0069,-0.0072,-0.0075,-0.0056,-0.0047,-0.0103,-0.0064,-0.0065,-0.0065,0,0.0425,0.0447,0.0492,0.0513,0.0518,0.0526,0.0531,0.0528,0.0491,0.0476,0.0438,0.038,0.0321,0.0261,0.0136,0.0157,0.007,0.0,-0.0004,-0.0044,-0.0088,-0.0124,-0.0111,-0.0072,-0.0071,-0.0071,-0.007,0,0.0475,0.0509,0.055,0.0556,0.0566,0.0577,0.0578,0.056,0.0577,0.0547,0.0558,0.0469,0.0433,0.0312,0.0166,0.0151,0.0027,-0.0013,-0.0103,-0.0104,-0.0137,-0.0141,-0.0099,-0.0099,-0.0098,-0.0098,-0.0098,0,0.0527,0.0561,0.0577,0.0598,0.0646,0.0631,0.0676,0.0666,0.067,0.0708,0.0619,0.0627,0.0444,0.0348,0.0202,0.0048,0.0054,-0.0087,-0.012,-0.0107,-0.0107,-0.0117,-0.0118,-0.0101,-0.01,-0.01,-0.0099,0,0.0574,0.0583,0.0634,0.0658,0.0671,0.0703,0.0748,0.0783,0.0778,0.0826,0.0823,0.0747,0.063,0.0444,0.025,0.0109,-0.0048,-0.0107,-0.0073,-0.01,-0.0166,-0.0162,-0.0211,-0.0212,-0.0213,-0.0213,-0.0214,0,0.0603,0.0632,0.0681,0.0717,0.073,0.0779,0.0815,0.0833,0.0886,0.0907,0.094,0.0846,0.0807,0.0521,0.0251,0.0003,-0.0035,-0.0157,-0.0188,-0.015,-0.0177,-0.0172,-0.0168,-0.02,-0.0201,-0.0201,-0.0201,0,0.0656,0.0668,0.0706,0.0778,0.0828,0.0895,0.0955,0.1016,0.1048,0.1097,0.1141,0.1112,0.085,0.06,0.0253,0.0074,-0.0119,-0.017,-0.0143,-0.0166,-0.0143,-0.0168,-0.0164,-0.0204,-0.0203,-0.0203,-0.0203,-0.0203,0.0691,0.0726,0.0774,0.0843,0.0907,0.0995,0.1063,0.1134,0.1227,0.1293,0.1278,0.1244,0.0956,0.0523,0.0208,-0.013,-0.011,-0.0239,-0.0237,-0.0235,-0.0215,-0.0194,-0.0259,-0.026,-0.026,-0.026,-0.026,0,0.0729,0.0771,0.0837,0.0917,0.0988,0.1023,0.1145,0.1196,0.1304,0.1383,0.1415,0.1155,0.0891,0.0566,0.0072,-0.0217,-0.0254,-0.0318,-0.0298,-0.0293,-0.0289,-0.0272,-0.0333,-0.0334,-0.0335,-0.0336,0,0,0.0749,0.0809,0.0838,0.0957,0.1026,0.1119,0.1193,0.1267,0.134,0.1395,0.1405,0.1379,0.101,0.0639,0.0235,-0.0045,-0.0108,-0.0112,-0.0023,0.0051,0.0059,-0.0215,-0.0179,0,0,0,0,0]}],[{"header":{"parameterUnit":"m.s-1","parameterCategory":2,"la1":30.2991,"la2":30.254,"lo1":-89.0895,"lo2":-89.0444,"dy":0.0017,"dx":0.0017,"nx":28,"ny":28,"refTime":"2025-04-06T03:00:00:Z","depth":"4","parameterNumber":2,"parameterNumberName":"U-component_of_CURRENTS"},"data":[0,0,0,0,0,0,0,0,0,0,0,0,0,0,0,0,0,0,0,0,0,0,0,0,0,0,0,0,0,0,0,0,0,0,0,0,0,0,0,0,0,0,0,0,0,0,0,0,0,0,0,0,0,0,0,0,0,0,0.1805,0.1806,0,0.1876,0.1877,0.1877,0.1936,0.1937,0.1937,0.1938,0.2024,0.2026,0.2027,0,0,0,0,0,0,0,0,0,0,0,0,0,0.1716,0.1717,0.1805,0.1806,0.1807,0.1876,0.1877,0.1878,0.1936,0.1937,0.1938,0.1938,0.2024,0.2025,0.2027,0,0,0,0,0,0,0,0,0,0,0,0,0,0.1766,0.1718,0.1805,0.1846,0.185,0.1876,0.1877,0.1878,0.1935,0.1937,0.1938,0.1939,0.2023,0.2025,0.2028,0.2018,0,0,0.2035,0.2036,0,0,0,0,0,0,0,0,0.1763,0.1769,0.1839,0.1843,0.1848,0.19,0.1877,0.1926,0.1935,0.1901,0.1938,0.1939,0.1984,0.199,0.1998,0.2022,0.2026,0.2035,0.2036,0.2037,0.2038,0,0,0,0,0,0,0,0.1759,0.1766,0.1831,0.184,0.1845,0.186,0.1868,0.1887,0.1934,0.1904,0.1909,0.192,0.1987,0.1995,0.2,0.2027,0.2035,0.2037,0.2038,0.2039,0.217,0.2172,0,0,0,0,0,0,0.1754,0.1763,0.1829,0.1833,0.181,0.1861,0.187,0.188,0.1934,0.1943,0.1919,0.1922,0.1991,0.1997,0.2004,0.2103,0.2037,0.204,0.2041,0.2168,0.2171,0.2173,0,0,0,0,0,0,0.1751,0.1759,0.1826,0.1801,0.1811,0.1861,0.1873,0.1881,0.1929,0.1945,0.1955,0.1962,0.1992,0.2,0.2059,0.2102,0.2041,0.2043,0.2166,0.2169,0.2172,0.2232,0,0,0,0,0,0,0.1748,0.1757,0.1781,0.1801,0.1812,0.1866,0.1872,0.1882,0.1932,0.1939,0.1985,0.1992,0.1993,0.2056,0.2062,0.2105,0.2044,0.2163,0.2167,0.2171,0.2228,0.2237,0.2245,0,0,0,0,0,0.1745,0.1766,0.1782,0.1791,0.1837,0.1868,0.1876,0.1913,0.1934,0.196,0.1997,0.1992,0.2085,0.2059,0.2066,0.211,0.2161,0.2166,0.2171,0.2224,0.2235,0.2245,0,0,0,0,0,0,0.1742,0.1775,0.1792,0.1825,0.1857,0.1879,0.1913,0.1934,0.1982,0.2003,0.2015,0.2024,0.2094,0.2094,0.2066,0.2161,0.2124,0.213,0.2162,0.2173,0.2182,0.2178,0.2046,0,0,0,0,0,0.175,0.1779,0.1808,0.184,0.1859,0.1893,0.1918,0.1944,0.198,0.2005,0.2037,0.2075,0.211,0.2137,0.2165,0.2213,0.2212,0.2248,0.2257,0.2264,0.2267,0.2303,0.2315,0.2189,0.2189,0.2188,0,0,0.1758,0.1782,0.18,0.1842,0.1873,0.1905,0.1913,0.1963,0.2002,0.2005,0.2081,0.2109,0.2131,0.219,0.2221,0.2201,0.2303,0.227,0.2276,0.2275,0.2309,0.2321,0.2332,0.2192,0.2191,0.2191,0,0,0.1775,0.1812,0.1839,0.187,0.1924,0.1943,0.1966,0.2013,0.2052,0.2114,0.2133,0.2188,0.2241,0.2266,0.2282,0.2356,0.2348,0.2375,0.2416,0.2451,0.2462,0.2471,0.2492,0.2502,0.2378,0.2378,0.2378,0,0.1787,0.1821,0.1853,0.1887,0.1921,0.1964,0.2,0.204,0.2104,0.2138,0.2152,0.2251,0.2274,0.2337,0.2369,0.2375,0.239,0.2371,0.2462,0.247,0.2478,0.2498,0.2508,0.2382,0.2381,0.2381,0.238,0,0.1811,0.1856,0.1879,0.1934,0.1973,0.2017,0.2067,0.2122,0.2174,0.2207,0.2298,0.2334,0.2389,0.2413,0.2415,0.2492,0.2483,0.2467,0.243,0.2494,0.2511,0.2521,0.2386,0.2385,0.2384,0.2383,0,0,0.179,0.1878,0.189,0.1926,0.2006,0.2033,0.211,0.2176,0.2231,0.2302,0.2371,0.2443,0.247,0.2491,0.2511,0.2548,0.2623,0.2541,0.2541,0.2553,0.2702,0.2549,0.2544,0.2628,0.263,0.2632,0.2692,0,0.1803,0.1868,0.1913,0.1984,0.202,0.2089,0.2148,0.2219,0.2289,0.2367,0.2424,0.2498,0.2497,0.2542,0.2579,0.2618,0.2652,0.2607,0.2645,0.2646,0.2494,0.2551,0.2638,0.2699,0.2701,0.2703,0.2704,0,0.1803,0.1851,0.192,0.2009,0.2033,0.2085,0.2191,0.2253,0.2362,0.2422,0.2505,0.255,0.2635,0.262,0.2708,0.2685,0.2701,0.2718,0.272,0.2559,0.251,0.2621,0.2721,0.272,0.2719,0.2717,0.2716,0,0.1753,0.185,0.1908,0.1941,0.2047,0.2102,0.2165,0.2274,0.2337,0.247,0.2528,0.2623,0.2686,0.273,0.2771,0.2755,0.285,0.2823,0.2697,0.2686,0.2778,0.2768,0.2875,0.2875,0.2875,0.2875,0.2874,0,0.1728,0.1778,0.1896,0.1926,0.1999,0.2085,0.2175,0.2257,0.2378,0.2444,0.2555,0.2614,0.272,0.278,0.2801,0.2776,0.2873,0.2709,0.2693,0.2803,0.2795,0.2785,0.2774,0.2877,0.2876,0.2876,0.2876,0,0.1659,0.1739,0.181,0.1935,0.1978,0.2033,0.2172,0.2227,0.2357,0.2452,0.25,0.2636,0.2712,0.2787,0.2866,0.2793,0.2801,0.2766,0.2889,0.2878,0.2606,0.2598,0.2623,0.2618,0.2614,0.261,0.2608,0,0.1625,0.1658,0.18,0.1843,0.1908,0.2004,0.2061,0.2205,0.2263,0.2437,0.2462,0.2594,0.2664,0.2642,0.2743,0.2767,0.2738,0.2713,0.2645,0.2599,0.2582,0.258,0.2577,0.2601,0.26,0.2599,0.2598,0,0.1559,0.1628,0.1687,0.1776,0.185,0.1916,0.2013,0.2038,0.219,0.2327,0.2363,0.2405,0.2483,0.254,0.2578,0.2592,0.2713,0.2669,0.2677,0.2613,0.2573,0.2559,0.2562,0.2583,0.2585,0.2587,0.2588,0,0.1513,0.1536,0.1624,0.1686,0.1772,0.1797,0.1862,0.1917,0.1986,0.2167,0.2178,0.2317,0.245,0.2451,0.2491,0.2491,0.2454,0.2362,0.2385,0.2402,0.2304,0.2219,0.211,0,0,0,0,0,0.1456,0.1468,0.1522,0.1578,0.1656,0.1704,0.1813,0.1879,0.2019,0.1987,0.2073,0.2135,0.2188,0.2271,0.2229,0.2419,0.2477,0.2361,0.2386,0.2504,0.252,0.2427,0,0,0,0,0,0,0.1415,0.1466,0.1482,0.1473,0.1489,0.1554,0.1616,0.1712,0.1701,0.1852,0.1893,0.2009,0.21,0.2188,0.2189,0.2215,0.2187,0.2458,0.2453,0.2494,0.2509,0.2523,0.2433,0,0,0,0,0]},{"header":{"parameterUnit":"m.s-1","parameterCategory":2,"la1":30.2991,"la2":30.254,"lo1":-89.0895,"lo2":-89.0444,"dy":0.0017,"dx":0.0017,"nx":28,"ny":28,"refTime":"2025-04-06T03:00:00:Z","depth":"4","parameterNumber":3,"parameterNumberName":"V-component_of_CURRENTS"},"data":[0,0,0,0,0,0,0,0,0,0,0,0,0,0,0,0,0,0,0,0,0,0,0,0,0,0,0,0,0,0,0,0,0,0,0,0,0,0,0,0,0,0,0,0,0,0,0,0,0,0,0,0,0,0,0,0,0,0,0.0015,0.0014,0,-0.0037,-0.0037,-0.0038,-0.0079,-0.008,-0.008,-0.008,-0.0158,-0.016,-0.0161,0,0,0,0,0,0,0,0,0,0,0,0,0,0.0033,0.0033,0.0015,0.0014,0.0014,-0.0037,-0.0037,-0.0038,-0.0079,-0.008,-0.008,-0.008,-0.0157,-0.0159,-0.0162,0,0,0,0,0,0,0,0,0,0,0,0,0,0.0007,0.0033,0.0015,-0.0012,-0.0015,-0.0036,-0.0037,-0.0038,-0.0079,-0.008,-0.008,-0.008,-0.0157,-0.0159,-0.0162,-0.0169,0,0,-0.017,-0.0171,0,0,0,0,0,0,0,0,0.0008,0.0006,-0.0007,-0.001,-0.0013,-0.0051,-0.006,-0.0083,-0.0079,-0.0056,-0.008,-0.0081,-0.0123,-0.0129,-0.0139,-0.0173,-0.0176,-0.017,-0.0172,-0.0173,-0.0174,0,0,0,0,0,0,0,0.001,0.0008,-0.0007,-0.0008,-0.0011,-0.0036,-0.004,-0.0064,-0.0088,-0.0058,-0.0061,-0.0064,-0.0125,-0.0136,-0.0141,-0.0178,-0.017,-0.0173,-0.0174,-0.0175,-0.0226,-0.0226,0,0,0,0,0,0,0.0022,0.001,-0.0005,-0.0008,-0.0002,-0.0036,-0.0041,-0.0039,-0.0087,-0.0094,-0.0064,-0.0066,-0.0131,-0.0138,-0.0144,-0.0149,-0.0173,-0.0176,-0.0177,-0.0227,-0.0226,-0.0226,0,0,0,0,0,0,0.0023,0.0022,-0.0003,0.0,-0.0005,-0.0035,-0.0034,-0.004,-0.005,-0.0091,-0.0099,-0.0067,-0.0132,-0.014,-0.0161,-0.0152,-0.0177,-0.0179,-0.0227,-0.0227,-0.0226,-0.0163,0,0,0,0,0,0,0.0024,0.0022,0.0027,0.0001,-0.0004,-0.0009,-0.0034,-0.0041,-0.0051,-0.0054,-0.0096,-0.0104,-0.0133,-0.0156,-0.0163,-0.0156,-0.0181,-0.0227,-0.0227,-0.0226,-0.0165,-0.016,-0.0156,0,0,0,0,0,0.0025,0.0037,0.0028,0.0026,0.0004,-0.0008,-0.0013,-0.0038,-0.005,-0.005,-0.0079,-0.0103,-0.0159,-0.0158,-0.0166,-0.016,-0.0228,-0.0227,-0.0226,-0.0167,-0.0161,-0.0156,0,0,0,0,0,0,0.0047,0.0033,0.0023,0.003,0.0015,-0.0014,-0.0015,-0.0032,-0.0055,-0.0057,-0.0099,-0.0108,-0.0125,-0.0151,-0.0149,-0.0174,-0.0197,-0.0198,-0.015,-0.0144,-0.014,-0.0129,-0.0184,0,0,0,0,0,0.0056,0.0061,0.0041,0.0047,0.0042,0.0015,0.0007,-0.0008,-0.0031,-0.0042,-0.0071,-0.0103,-0.0129,-0.0142,-0.0169,-0.018,-0.0209,-0.0183,-0.0178,-0.0174,-0.0171,-0.0208,-0.0206,-0.0224,-0.0224,-0.0224,0,0,0.0066,0.0059,0.0062,0.0052,0.0038,0.0039,0.0009,0.0004,0.0002,-0.0046,-0.0056,-0.0087,-0.0129,-0.0142,-0.0152,-0.0163,-0.0183,-0.0173,-0.0169,-0.0169,-0.0207,-0.0205,-0.0203,-0.0224,-0.0224,-0.0224,0,0,0.009,0.0084,0.0096,0.0089,0.0076,0.0061,0.0063,0.0039,0.0026,0.0014,-0.0023,-0.0047,-0.0084,-0.0112,-0.0132,-0.0119,-0.0158,-0.0127,-0.0094,-0.0129,-0.0127,-0.0127,-0.0154,-0.0156,-0.0123,-0.0123,-0.0123,0,0.0101,0.0115,0.0098,0.0107,0.0106,0.0076,0.0088,0.0071,0.0043,0.0036,0.002,-0.0036,-0.0071,-0.0093,-0.0089,-0.0108,-0.0132,-0.0109,-0.0122,-0.0122,-0.0122,-0.015,-0.0154,-0.012,-0.012,-0.0121,-0.0121,0,0.0132,0.0143,0.0151,0.0153,0.0151,0.0157,0.0136,0.0129,0.0111,0.0091,0.0068,0.002,-0.0012,-0.0028,-0.0055,-0.0072,-0.0089,-0.0112,-0.0133,-0.0117,-0.0147,-0.0152,-0.0116,-0.0117,-0.0118,-0.0118,0,0,0.0155,0.017,0.0173,0.0185,0.0178,0.0181,0.0181,0.0172,0.0177,0.014,0.0138,0.0087,0.0061,0.0037,-0.0003,-0.0035,-0.0058,-0.0068,-0.0071,-0.0088,-0.0129,-0.0128,-0.0133,-0.0081,-0.0082,-0.0082,-0.0146,0,0.0182,0.0215,0.0213,0.0243,0.0257,0.0238,0.0241,0.023,0.0214,0.0204,0.015,0.0134,0.0086,0.0076,0.0035,-0.0034,-0.0068,-0.0038,-0.0148,-0.0151,-0.0147,-0.0138,-0.0084,-0.015,-0.0151,-0.0152,-0.0152,0,0.021,0.023,0.0267,0.029,0.0295,0.0307,0.0315,0.0316,0.0292,0.0282,0.0253,0.0211,0.0162,0.0118,0.001,0.0032,-0.0041,-0.0099,-0.0103,-0.0128,-0.0158,-0.0174,-0.0161,-0.016,-0.0159,-0.0159,-0.0158,0,0.0233,0.0267,0.0301,0.0308,0.0327,0.034,0.0348,0.0339,0.0355,0.0336,0.0346,0.0273,0.0246,0.0143,0.0026,0.0018,-0.0097,-0.0125,-0.0195,-0.0196,-0.0206,-0.0206,-0.0205,-0.0205,-0.0204,-0.0204,-0.0204,0,0.0259,0.0287,0.0317,0.0335,0.0377,0.0376,0.0417,0.0414,0.0424,0.0452,0.0392,0.0392,0.0251,0.0168,0.0049,-0.0079,-0.008,-0.0186,-0.0212,-0.0177,-0.0173,-0.0209,-0.0208,-0.0207,-0.0206,-0.0206,-0.0205,0,0.0275,0.0294,0.0337,0.0373,0.039,0.0419,0.0473,0.0501,0.0507,0.0542,0.0543,0.0482,0.0379,0.0233,0.0068,-0.0035,-0.0167,-0.0216,-0.0154,-0.0176,-0.025,-0.0246,-0.0298,-0.0299,-0.0299,-0.0299,-0.03,0,0.0285,0.0309,0.0368,0.0403,0.0423,0.0473,0.0508,0.0537,0.0577,0.0597,0.0615,0.0539,0.0476,0.0258,0.0091,-0.0129,-0.0169,-0.0241,-0.0261,-0.024,-0.026,-0.0255,-0.025,-0.03,-0.0301,-0.0301,-0.0301,0,0.0301,0.0324,0.036,0.0431,0.0482,0.0543,0.06,0.0638,0.0672,0.0687,0.0683,0.0573,0.0458,0.0273,0.0105,-0.0059,-0.0197,-0.0247,-0.0248,-0.0267,-0.0243,-0.0262,-0.0256,-0.0302,-0.0302,-0.0302,-0.0302,0,0.0313,0.0339,0.0389,0.0451,0.0521,0.0586,0.062,0.0668,0.0706,0.0732,0.0728,0.0607,0.0538,0.0309,0.0153,-0.0004,-0.0057,-0.0125,-0.0133,-0.0134,-0.0075,-0.002,-0.0028,0,0,0,0,0,0.0319,0.0348,0.0407,0.0474,0.0546,0.0586,0.0668,0.0698,0.0739,0.0747,0.0744,0.0639,0.0424,0.0333,0.0177,0.0117,-0.0103,-0.0075,-0.019,-0.031,-0.0309,-0.0268,0,0,0,0,0,0,0.0321,0.0372,0.0399,0.048,0.0529,0.0608,0.0661,0.0693,0.0702,0.0725,0.0621,0.0583,0.0376,0.0514,0.0169,0.0122,0.0023,-0.0169,-0.0173,-0.0311,-0.031,-0.0308,-0.0266,0,0,0,0,0]}]]